EW8735 Weather Reports


time (UTC)temp
F
wind
direction
speed
knots
gust
knots
rain 1hr
in
rain 24hr
in
rain mn
in
humidity
%
barometer
mb
20260507010045 74 273 0.0 0.0 0.00 0.00 0.00 36 1009.8
20260507004541 75 273 0.0 0.0 0.00 0.00 0.00 35 1009.6
20260507003041 76 264 0.0 0.0 0.00 0.00 0.00 31 1009.4
20260507001556 77 254 0.0 0.0 0.00 0.00 0.00 32 1009.3
20260507000053 77 265 0.0 0.0 0.00 0.00 0.00 33 1009.4
20260506234558 79 261 0.0 0.0 0.00 0.00 0.00 33 1009.3
20260506233046 78 263 0.0 0.0 0.00 0.00 0.00 34 1009.2
20260506231539 78 261 0.0 0.0 0.00 0.00 0.00 31 1009.2
20260506230038 79 261 0.0 0.0 0.00 0.00 0.00 33 1009.2
20260506224538 80 266 0.0 0.0 0.00 0.00 0.00 33 1009.3
20260506223038 79 270 0.0 0.0 0.00 0.00 0.00 31 1009.3
20260506221550 80 261 0.0 0.0 0.00 0.00 0.00 34 1009.5
20260506220043 81 299 0.0 0.0 0.00 0.00 0.00 40 1009.9
20260506214536 82 303 0.0 0.0 0.00 0.00 0.00 40 1009.8
20260506213043 82 299 0.0 0.0 0.00 0.00 0.00 40 1009.8
20260506211543 82 270 0.0 0.0 0.00 0.00 0.00 37 1009.7
20260506210043 82 281 0.0 0.0 0.00 0.00 0.00 34 1009.7
20260506204533 81 256 0.0 0.0 0.00 0.00 0.00 31 1009.6
20260506203032 80 248 0.0 0.0 0.00 0.00 0.00 33 1009.8
20260506201534 79 258 0.0 0.0 0.00 0.00 0.00 37 1009.8
20260506200030 79 266 0.0 0.0 0.00 0.00 0.00 36 1009.9
20260506194522 77 282 0.0 0.0 0.00 0.00 0.00 40 1010.2
20260506193032 76 292 0.0 0.0 0.00 0.00 0.00 44 1010.5
20260506191516 75 4 0.0 0.0 0.00 0.00 0.00 47 1010.8
20260506190014 74 4 0.0 0.0 0.00 0.00 0.00 45 1010.9
20260506184511 74 4 0.0 0.0 0.00 0.00 0.00 47 1011.2
20260506183010 73 4 0.0 0.0 0.00 0.00 0.00 46 1011.4
20260506181523 73 8 0.0 0.0 0.00 0.00 0.00 45 1011.6
20260506180008 72 9 0.0 0.0 0.00 0.00 0.00 47 1011.9
20260506174504 72 9 0.0 0.0 0.00 0.00 0.00 48 1011.9
20260506173004 71 9 0.0 0.0 0.00 0.00 0.00 52 1011.9
20260506171609 71 14 0.0 0.0 0.00 0.00 0.00 49 1011.9
20260506170112 71 359 0.0 0.0 0.00 0.00 0.00 50 1011.9
20260506164554 69 350 0.0 0.0 0.00 0.00 0.00 53 1011.8
20260506163057 68 341 0.0 0.0 0.00 0.00 0.00 52 1012.0
20260506161550 68 341 0.0 0.0 0.00 0.00 0.00 53 1011.9
20260506160048 67 341 0.0 0.0 0.00 0.00 0.00 54 1011.9
20260506154605 67 359 0.0 0.0 0.00 0.00 0.00 56 1012.2
20260506153041 65 44 0.0 0.0 0.00 0.00 0.00 57 1012.1
20260506151538 64 54 0.0 0.0 0.00 0.00 0.00 59 1012.1
20260506150036 63 54 0.0 0.0 0.00 0.00 0.00 61 1012.1
20260506144536 62 49 0.0 0.0 0.00 0.00 0.00 63 1012.0
20260506143028 59 354 0.0 0.0 0.00 0.00 0.00 69 1011.9
20260506141523 57 14 0.0 0.0 0.00 0.00 0.00 74 1011.8
20260506140023 54 56 0.0 0.0 0.00 0.00 0.00 80 1011.5
20260506134520 52 54 0.0 0.0 0.00 0.00 0.00 83 1011.4
20260506133018 51 56 0.0 0.0 0.00 0.00 0.00 84 1011.2
20260506131517 50 60 0.0 0.0 0.00 0.00 0.00 84 1011.2
20260506130017 50 59 0.0 0.0 0.00 0.00 0.00 83 1011.1
20260506124514 50 59 0.0 0.0 0.00 0.00 0.00 83 1010.9
20260506123012 50 16 0.0 0.0 0.00 0.00 0.00 82 1010.7
20260506121509 50 16 0.0 0.0 0.00 0.00 0.00 81 1010.5
20260506120008 50 16 0.0 0.0 0.00 0.00 0.00 81 1010.3
20260506114506 51 16 0.0 0.0 0.00 0.00 0.00 79 1010.0
20260506113005 51 16 0.0 0.0 0.00 0.00 0.00 81 1010.0
20260506111503 49 16 0.0 0.0 0.00 0.00 0.00 82 1009.9
20260506110100 52 15 0.0 0.0 0.00 0.00 0.00 76 1009.8
20260506104630 53 16 0.0 0.0 0.00 0.00 0.00 77 1009.8
20260506103100 53 16 0.0 0.0 0.00 0.00 0.00 77 1009.7
20260506101553 54 16 0.0 0.0 0.00 0.00 0.00 77 1009.5
20260506100052 54 16 0.0 0.0 0.00 0.00 0.00 76 1009.4
20260506094551 54 16 0.0 0.0 0.00 0.00 0.00 76 1009.3
20260506093051 54 16 0.0 0.0 0.00 0.00 0.00 79 1009.3
20260506091549 54 16 0.0 0.0 0.00 0.00 0.00 80 1009.3
20260506090049 53 16 0.0 0.0 0.00 0.00 0.00 82 1009.3
20260506084545 54 16 0.0 0.0 0.00 0.00 0.00 78 1009.3
20260506083047 56 16 0.0 0.0 0.00 0.00 0.00 74 1009.3
20260506081538 58 16 0.0 0.0 0.00 0.00 0.00 71 1009.0
20260506073030 56 16 0.0 0.0 0.00 0.00 0.00 73 1008.8
20260506071527 56 16 0.0 0.0 0.00 0.00 0.00 73 1008.7
20260506061523 56 16 0.0 0.0 0.00 0.00 0.00 76 1008.5
20260506044526 61 16 0.0 0.0 0.00 0.00 0.00 66 1007.9
20260506043019 62 16 0.0 0.0 0.00 0.00 0.00 66 1007.8
20260506041518 61 16 0.0 0.0 0.00 0.00 0.00 67 1007.7
20260506040028 62 16 0.0 0.0 0.00 0.00 0.00 66 1007.5
20260506034518 61 16 0.0 0.0 0.00 0.00 0.00 68 1007.4
20260506033021 64 16 0.0 0.0 0.00 0.00 0.00 65 1007.2
20260506031517 67 16 0.0 0.0 0.00 0.00 0.00 60 1007.1
20260506030019 72 16 0.0 0.0 0.00 0.00 0.00 51 1007.1
20260506024526 73 16 0.0 0.0 0.00 0.00 0.00 47 1007.0
20260506023016 74 16 0.0 0.0 0.00 0.00 0.00 46 1007.0
20260506021528 74 16 0.0 0.0 0.00 0.00 0.00 44 1006.9
20260506020017 75 18 0.0 0.0 0.00 0.00 0.00 44 1006.7
20260506014522 76 18 0.0 0.0 0.00 0.00 0.00 41 1006.8
20260506013015 76 15 0.0 0.0 0.00 0.00 0.00 40 1006.8
20260506011522 77 15 0.0 0.0 0.00 0.00 0.00 38 1006.7